owner,sensor,date,latitude,longitude,vertical_datum,wind_speed,wind_to_direction,wind_speed_of_gust,qcFlag 
WAVCIS,ioos:station:WAVCIS:CSI06:1,2017-01-01T00:00:00Z,28.8667,-90.4833,10.0,11.09,168.0,,'11111222,11111222,99999999' 
WAVCIS,ioos:station:WAVCIS:CSI06:1,2017-01-01T01:00:00Z,28.8667,-90.4833,10.0,11.89,176.0,,'11111222,11111222,99999999' 
WAVCIS,ioos:station:WAVCIS:CSI06:1,2017-01-01T02:00:00Z,28.8667,-90.4833,10.0,11.09,172.0,,'11111222,11111222,99999999' 
WAVCIS,ioos:station:WAVCIS:CSI06:1,2017-01-01T03:00:00Z,28.8667,-90.4833,10.0,11.03,174.0,,'11111222,11111222,99999999' 
WAVCIS,ioos:station:WAVCIS:CSI06:1,2017-01-01T04:00:00Z,28.8667,-90.4833,10.0,12.37,178.0,,'11111222,11111222,99999999' 
WAVCIS,ioos:station:WAVCIS:CSI06:1,2017-01-01T05:00:00Z,28.8667,-90.4833,10.0,11.17,181.0,,'11111222,11111222,99999999' 
WAVCIS,ioos:station:WAVCIS:CSI06:1,2017-01-01T06:00:00Z,28.8667,-90.4833,10.0,11.68,182.0,,'11111222,11111222,99999999' 
WAVCIS,ioos:station:WAVCIS:CSI06:1,2017-01-01T07:00:00Z,28.8667,-90.4833,10.0,11.23,185.0,,'11111222,11111222,99999999' 
WAVCIS,ioos:station:WAVCIS:CSI06:1,2017-01-01T08:00:00Z,28.8667,-90.4833,10.0,11.05,187.0,,'11111222,11111222,99999999' 
WAVCIS,ioos:station:WAVCIS:CSI06:1,2017-01-01T09:00:00Z,28.8667,-90.4833,10.0,10.89,188.0,,'11111222,11111222,99999999' 
WAVCIS,ioos:station:WAVCIS:CSI06:1,2017-01-01T10:00:00Z,28.8667,-90.4833,10.0,10.17,189.0,,'11111222,11111222,99999999' 
WAVCIS,ioos:station:WAVCIS:CSI06:1,2017-01-01T11:00:00Z,28.8667,-90.4833,10.0,8.92,183.0,,'11111222,11111222,99999999' 
WAVCIS,ioos:station:WAVCIS:CSI06:1,2017-01-01T12:00:00Z,28.8667,-90.4833,10.0,9.12,187.0,,'11111222,11111222,99999999' 
WAVCIS,ioos:station:WAVCIS:CSI06:1,2017-01-01T13:00:00Z,28.8667,-90.4833,10.0,8.77,187.0,,'11111222,11111222,99999999' 
WAVCIS,ioos:station:WAVCIS:CSI06:1,2017-01-01T14:00:00Z,28.8667,-90.4833,10.0,9.08,189.0,,'11111222,11111222,99999999' 
WAVCIS,ioos:station:WAVCIS:CSI06:1,2017-01-01T15:00:00Z,28.8667,-90.4833,10.0,6.396,200.0,,'11111222,11111222,99999999' 
WAVCIS,ioos:station:WAVCIS:CSI06:1,2017-01-01T16:00:00Z,28.8667,-90.4833,10.0,7.88,206.0,,'11111222,11111222,99999999' 
WAVCIS,ioos:station:WAVCIS:CSI06:1,2017-01-01T17:00:00Z,28.8667,-90.4833,10.0,8.71,204.0,,'11111222,11111222,99999999' 
WAVCIS,ioos:station:WAVCIS:CSI06:1,2017-01-01T18:00:00Z,28.8667,-90.4833,10.0,7.45,194.0,,'11111222,11111222,99999999' 
WAVCIS,ioos:station:WAVCIS:CSI06:1,2017-01-01T19:00:00Z,28.8667,-90.4833,10.0,7.38,187.0,,'11111222,11111222,99999999' 
WAVCIS,ioos:station:WAVCIS:CSI06:1,2017-01-01T20:00:00Z,28.8667,-90.4833,10.0,7.03,190.0,,'11111222,11111222,99999999' 
WAVCIS,ioos:station:WAVCIS:CSI06:1,2017-01-01T21:00:00Z,28.8667,-90.4833,10.0,7.54,192.0,,'11111222,11111222,99999999' 
WAVCIS,ioos:station:WAVCIS:CSI06:1,2017-01-01T22:00:00Z,28.8667,-90.4833,10.0,10.27,284.0,,'11111222,11111222,99999999' 
WAVCIS,ioos:station:WAVCIS:CSI06:1,2017-01-01T23:00:00Z,28.8667,-90.4833,10.0,5.173,230.0,,'11111222,11111222,99999999' 
WAVCIS,ioos:station:WAVCIS:CSI06:1,2017-01-02T00:00:00Z,28.8667,-90.4833,10.0,5.642,152.0,,'11111222,11111222,99999999' 
WAVCIS,ioos:station:WAVCIS:CSI06:1,2017-01-02T01:00:00Z,28.8667,-90.4833,10.0,5.735,172.0,,'11111222,11111222,99999999' 
WAVCIS,ioos:station:WAVCIS:CSI06:1,2017-01-02T02:00:00Z,28.8667,-90.4833,10.0,7.89,326.0,,'11111222,11111222,99999999' 
WAVCIS,ioos:station:WAVCIS:CSI06:1,2017-01-02T03:00:00Z,28.8667,-90.4833,10.0,4.553,80.0,,'11111222,11111222,99999999' 
WAVCIS,ioos:station:WAVCIS:CSI06:1,2017-01-02T04:00:00Z,28.8667,-90.4833,10.0,6.74,97.0,,'11111222,11111222,99999999' 
WAVCIS,ioos:station:WAVCIS:CSI06:1,2017-01-02T05:00:00Z,28.8667,-90.4833,10.0,5.609,104.0,,'11111222,11111222,99999999' 
WAVCIS,ioos:station:WAVCIS:CSI06:1,2017-01-02T06:00:00Z,28.8667,-90.4833,10.0,5.809,105.0,,'11111222,11111222,99999999' 
WAVCIS,ioos:station:WAVCIS:CSI06:1,2017-01-02T07:00:00Z,28.8667,-90.4833,10.0,7.42,154.0,,'11111222,11111222,99999999' 
WAVCIS,ioos:station:WAVCIS:CSI06:1,2017-01-02T08:00:00Z,28.8667,-90.4833,10.0,7.88,151.0,,'11111222,11111222,99999999' 
WAVCIS,ioos:station:WAVCIS:CSI06:1,2017-01-02T09:00:00Z,28.8667,-90.4833,10.0,6.95,145.0,,'11111222,11111222,99999999' 
WAVCIS,ioos:station:WAVCIS:CSI06:1,2017-01-02T10:00:00Z,28.8667,-90.4833,10.0,7.6,139.0,,'11111222,11111222,99999999' 
WAVCIS,ioos:station:WAVCIS:CSI06:1,2017-01-02T11:00:00Z,28.8667,-90.4833,10.0,8.01,144.0,,'11111222,11111222,99999999' 
WAVCIS,ioos:station:WAVCIS:CSI06:1,2017-01-02T12:00:00Z,28.8667,-90.4833,10.0,9.31,143.0,,'11111222,11111222,99999999' 
WAVCIS,ioos:station:WAVCIS:CSI06:1,2017-01-02T13:00:00Z,28.8667,-90.4833,10.0,9.35,148.0,,'11111222,11111222,99999999' 
WAVCIS,ioos:station:WAVCIS:CSI06:1,2017-01-02T14:00:00Z,28.8667,-90.4833,10.0,10.46,151.0,,'11111222,11111222,99999999' 
WAVCIS,ioos:station:WAVCIS:CSI06:1,2017-01-02T15:00:00Z,28.8667,-90.4833,10.0,10.27,157.0,,'11111222,11111222,99999999' 
WAVCIS,ioos:station:WAVCIS:CSI06:1,2017-01-02T16:00:00Z,28.8667,-90.4833,10.0,10.37,166.0,,'11111222,11111222,99999999' 
WAVCIS,ioos:station:WAVCIS:CSI06:1,2017-01-02T17:00:00Z,28.8667,-90.4833,10.0,11.79,172.0,,'11111222,11111222,99999999' 
WAVCIS,ioos:station:WAVCIS:CSI06:1,2017-01-02T18:00:00Z,28.8667,-90.4833,10.0,12.77,176.0,,'11111222,11111222,99999999' 
WAVCIS,ioos:station:WAVCIS:CSI06:1,2017-01-02T19:00:00Z,28.8667,-90.4833,10.0,11.72,188.0,,'11111222,11111222,99999999' 
WAVCIS,ioos:station:WAVCIS:CSI06:1,2017-01-02T20:00:00Z,28.8667,-90.4833,10.0,0.533,197.0,,'11111222,11111222,99999999' 
WAVCIS,ioos:station:WAVCIS:CSI06:1,2017-01-02T21:00:00Z,28.8667,-90.4833,10.0,0.006,209.0,,'11111222,11111222,99999999' 
WAVCIS,ioos:station:WAVCIS:CSI06:1,2017-01-02T22:00:00Z,28.8667,-90.4833,10.0,6.687,206.0,,'11111222,11111222,99999999' 
WAVCIS,ioos:station:WAVCIS:CSI06:1,2017-01-02T23:00:00Z,28.8667,-90.4833,10.0,10.78,201.0,,'11111222,11111222,99999999' 
WAVCIS,ioos:station:WAVCIS:CSI06:1,2017-01-03T00:00:00Z,28.8667,-90.4833,10.0,9.52,195.0,,'11111222,11111222,99999999' 
WAVCIS,ioos:station:WAVCIS:CSI06:1,2017-01-03T01:00:00Z,28.8667,-90.4833,10.0,10.98,230.0,,'11111222,11111222,99999999' 
WAVCIS,ioos:station:WAVCIS:CSI06:1,2017-01-03T02:00:00Z,28.8667,-90.4833,10.0,6.672,258.0,,'11111222,11111222,99999999' 
WAVCIS,ioos:station:WAVCIS:CSI06:1,2017-01-03T03:00:00Z,28.8667,-90.4833,10.0,6.018,188.0,,'11111222,11111222,99999999' 
WAVCIS,ioos:station:WAVCIS:CSI06:1,2017-01-03T04:00:00Z,28.8667,-90.4833,10.0,5.037,194.0,,'11111222,11111222,99999999' 
WAVCIS,ioos:station:WAVCIS:CSI06:1,2017-01-03T05:00:00Z,28.8667,-90.4833,10.0,5.146,213.0,,'11111222,11111222,99999999' 
WAVCIS,ioos:station:WAVCIS:CSI06:1,2017-01-03T06:00:00Z,28.8667,-90.4833,10.0,6.22,199.0,,'11111222,11111222,99999999' 
WAVCIS,ioos:station:WAVCIS:CSI06:1,2017-01-03T07:00:00Z,28.8667,-90.4833,10.0,6.04,225.0,,'11111222,11111222,99999999' 
WAVCIS,ioos:station:WAVCIS:CSI06:1,2017-01-03T08:00:00Z,28.8667,-90.4833,10.0,7.99,317.0,,'11111222,11111222,99999999' 
WAVCIS,ioos:station:WAVCIS:CSI06:1,2017-01-03T09:00:00Z,28.8667,-90.4833,10.0,9.09,327.0,,'11111222,11111222,99999999' 
WAVCIS,ioos:station:WAVCIS:CSI06:1,2017-01-03T10:00:00Z,28.8667,-90.4833,10.0,5.876,329.0,,'11111222,11111222,99999999' 
WAVCIS,ioos:station:WAVCIS:CSI06:1,2017-01-03T11:00:00Z,28.8667,-90.4833,10.0,6.708,331.0,,'11111222,11111222,99999999' 
WAVCIS,ioos:station:WAVCIS:CSI06:1,2017-01-03T12:00:00Z,28.8667,-90.4833,10.0,7.25,336.0,,'11111222,11111222,99999999' 
WAVCIS,ioos:station:WAVCIS:CSI06:1,2017-01-03T13:00:00Z,28.8667,-90.4833,10.0,5.489,337.0,,'11111222,11111222,99999999' 
WAVCIS,ioos:station:WAVCIS:CSI06:1,2017-01-03T14:00:00Z,28.8667,-90.4833,10.0,4.194,338.0,,'11111222,11111222,99999999' 
WAVCIS,ioos:station:WAVCIS:CSI06:1,2017-01-03T15:00:00Z,28.8667,-90.4833,10.0,1.224,338.0,,'11111222,11111222,99999999' 
WAVCIS,ioos:station:WAVCIS:CSI06:1,2017-01-03T16:00:00Z,28.8667,-90.4833,10.0,0.004,130.0,,'11111222,11111222,99999999' 
WAVCIS,ioos:station:WAVCIS:CSI06:1,2017-01-03T17:00:00Z,28.8667,-90.4833,10.0,0.524,288.0,,'11111222,11111222,99999999' 
WAVCIS,ioos:station:WAVCIS:CSI06:1,2017-01-03T18:00:00Z,28.8667,-90.4833,10.0,2.245,271.0,,'11111222,11111222,99999999' 
WAVCIS,ioos:station:WAVCIS:CSI06:1,2017-01-03T19:00:00Z,28.8667,-90.4833,10.0,2.346,264.0,,'11111222,11111222,99999999' 
WAVCIS,ioos:station:WAVCIS:CSI06:1,2017-01-03T20:00:00Z,28.8667,-90.4833,10.0,2.759,250.0,,'11111222,11111222,99999999' 
WAVCIS,ioos:station:WAVCIS:CSI06:1,2017-01-03T21:00:00Z,28.8667,-90.4833,10.0,3.52,249.0,,'11111222,11111222,99999999' 
WAVCIS,ioos:station:WAVCIS:CSI06:1,2017-01-03T22:00:00Z,28.8667,-90.4833,10.0,5.337,271.0,,'11111222,11111222,99999999' 
WAVCIS,ioos:station:WAVCIS:CSI06:1,2017-01-03T23:00:00Z,28.8667,-90.4833,10.0,5.353,269.0,,'11111222,11111222,99999999' 
WAVCIS,ioos:station:WAVCIS:CSI06:1,2017-01-04T00:00:00Z,28.8667,-90.4833,10.0,4.541,272.0,,'11111222,11111222,99999999' 
WAVCIS,ioos:station:WAVCIS:CSI06:1,2017-01-04T01:00:00Z,28.8667,-90.4833,10.0,5.321,277.0,,'11111222,11111222,99999999' 
WAVCIS,ioos:station:WAVCIS:CSI06:1,2017-01-04T02:00:00Z,28.8667,-90.4833,10.0,4.286,260.0,,'11111222,11111222,99999999' 
WAVCIS,ioos:station:WAVCIS:CSI06:1,2017-01-04T03:00:00Z,28.8667,-90.4833,10.0,5.682,257.0,,'11111222,11111222,99999999' 
WAVCIS,ioos:station:WAVCIS:CSI06:1,2017-01-04T04:00:00Z,28.8667,-90.4833,10.0,5.994,261.0,,'11111222,11111222,99999999' 
WAVCIS,ioos:station:WAVCIS:CSI06:1,2017-01-04T05:00:00Z,28.8667,-90.4833,10.0,7.5,277.0,,'11111222,11111222,99999999' 
WAVCIS,ioos:station:WAVCIS:CSI06:1,2017-01-04T06:00:00Z,28.8667,-90.4833,10.0,8.12,286.0,,'11111222,11111222,99999999' 
WAVCIS,ioos:station:WAVCIS:CSI06:1,2017-01-04T07:00:00Z,28.8667,-90.4833,10.0,8.31,310.0,,'11111222,11111222,99999999' 
WAVCIS,ioos:station:WAVCIS:CSI06:1,2017-01-04T08:00:00Z,28.8667,-90.4833,10.0,7.39,322.0,,'11111222,11111222,99999999' 
WAVCIS,ioos:station:WAVCIS:CSI06:1,2017-01-04T09:00:00Z,28.8667,-90.4833,10.0,8.33,322.0,,'11111222,11111222,99999999' 
WAVCIS,ioos:station:WAVCIS:CSI06:1,2017-01-04T10:00:00Z,28.8667,-90.4833,10.0,8.33,336.0,,'11111222,11111222,99999999' 
WAVCIS,ioos:station:WAVCIS:CSI06:1,2017-01-04T11:00:00Z,28.8667,-90.4833,10.0,6.039,356.0,,'11111222,11111222,99999999' 
WAVCIS,ioos:station:WAVCIS:CSI06:1,2017-01-04T12:00:00Z,28.8667,-90.4833,10.0,6.65,354.0,,'11111222,11111222,99999999' 
WAVCIS,ioos:station:WAVCIS:CSI06:1,2017-01-04T13:00:00Z,28.8667,-90.4833,10.0,8.85,12.0,,'11111222,11111222,99999999' 
WAVCIS,ioos:station:WAVCIS:CSI06:1,2017-01-04T14:00:00Z,28.8667,-90.4833,10.0,6.521,8.0,,'11111222,11111222,99999999' 
WAVCIS,ioos:station:WAVCIS:CSI06:1,2017-01-04T15:00:00Z,28.8667,-90.4833,10.0,7.95,16.0,,'11111222,11111222,99999999' 
WAVCIS,ioos:station:WAVCIS:CSI06:1,2017-01-04T16:00:00Z,28.8667,-90.4833,10.0,8.93,18.0,,'11111222,11111222,99999999' 
WAVCIS,ioos:station:WAVCIS:CSI06:1,2017-01-04T17:00:00Z,28.8667,-90.4833,10.0,7.12,21.0,,'11111222,11111222,99999999' 
WAVCIS,ioos:station:WAVCIS:CSI06:1,2017-01-04T18:00:00Z,28.8667,-90.4833,10.0,7.05,16.0,,'11111222,11111222,99999999' 
WAVCIS,ioos:station:WAVCIS:CSI06:1,2017-01-04T19:00:00Z,28.8667,-90.4833,10.0,5.506,15.0,,'11111222,11111222,99999999' 
WAVCIS,ioos:station:WAVCIS:CSI06:1,2017-01-04T20:00:00Z,28.8667,-90.4833,10.0,4.121,1.0,,'11111222,11111222,99999999' 
WAVCIS,ioos:station:WAVCIS:CSI06:1,2017-01-04T21:00:00Z,28.8667,-90.4833,10.0,4.975,12.0,,'11111222,11111222,99999999' 
WAVCIS,ioos:station:WAVCIS:CSI06:1,2017-01-04T22:00:00Z,28.8667,-90.4833,10.0,3.913,19.0,,'11111222,11111222,99999999' 
WAVCIS,ioos:station:WAVCIS:CSI06:1,2017-01-04T23:00:00Z,28.8667,-90.4833,10.0,3.566,9.0,,'11111222,11111222,99999999' 
WAVCIS,ioos:station:WAVCIS:CSI06:1,2017-01-05T00:00:00Z,28.8667,-90.4833,10.0,4.869,17.0,,'11111222,11111222,99999999' 
WAVCIS,ioos:station:WAVCIS:CSI06:1,2017-01-05T01:00:00Z,28.8667,-90.4833,10.0,4.488,19.0,,'11111222,11111222,99999999' 
WAVCIS,ioos:station:WAVCIS:CSI06:1,2017-01-05T02:00:00Z,28.8667,-90.4833,10.0,4.653,38.0,,'11111222,11111222,99999999' 
WAVCIS,ioos:station:WAVCIS:CSI06:1,2017-01-05T03:00:00Z,28.8667,-90.4833,10.0,4.587,43.0,,'11111222,11111222,99999999' 
WAVCIS,ioos:station:WAVCIS:CSI06:1,2017-01-05T04:00:00Z,28.8667,-90.4833,10.0,5.988,58.0,,'11111222,11111222,99999999' 
WAVCIS,ioos:station:WAVCIS:CSI06:1,2017-01-05T05:00:00Z,28.8667,-90.4833,10.0,4.407,77.0,,'11111222,11111222,99999999' 
WAVCIS,ioos:station:WAVCIS:CSI06:1,2017-01-05T06:00:00Z,28.8667,-90.4833,10.0,5.011,84.0,,'11111222,11111222,99999999' 
WAVCIS,ioos:station:WAVCIS:CSI06:1,2017-01-05T07:00:00Z,28.8667,-90.4833,10.0,4.694,107.0,,'11111222,11111222,99999999' 
WAVCIS,ioos:station:WAVCIS:CSI06:1,2017-01-05T08:00:00Z,28.8667,-90.4833,10.0,4.413,131.0,,'11111222,11111222,99999999' 
WAVCIS,ioos:station:WAVCIS:CSI06:1,2017-01-05T09:00:00Z,28.8667,-90.4833,10.0,4.605,133.0,,'11111222,11111222,99999999' 
WAVCIS,ioos:station:WAVCIS:CSI06:1,2017-01-05T10:00:00Z,28.8667,-90.4833,10.0,4.008,134.0,,'11111222,11111222,99999999' 
WAVCIS,ioos:station:WAVCIS:CSI06:1,2017-01-05T11:00:00Z,28.8667,-90.4833,10.0,1.634,177.0,,'11111222,11111222,99999999' 
WAVCIS,ioos:station:WAVCIS:CSI06:1,2017-01-05T12:00:00Z,28.8667,-90.4833,10.0,1.026,211.0,,'11111222,11111222,99999999' 
WAVCIS,ioos:station:WAVCIS:CSI06:1,2017-01-05T13:00:00Z,28.8667,-90.4833,10.0,2.631,136.0,,'11111222,11111222,99999999' 
WAVCIS,ioos:station:WAVCIS:CSI06:1,2017-01-05T14:00:00Z,28.8667,-90.4833,10.0,2.218,178.0,,'11111222,11111222,99999999' 
WAVCIS,ioos:station:WAVCIS:CSI06:1,2017-01-05T15:00:00Z,28.8667,-90.4833,10.0,4.003,222.0,,'11111222,11111222,99999999' 
WAVCIS,ioos:station:WAVCIS:CSI06:1,2017-01-05T16:00:00Z,28.8667,-90.4833,10.0,3.127,224.0,,'11111222,11111222,99999999' 
WAVCIS,ioos:station:WAVCIS:CSI06:1,2017-01-05T17:00:00Z,28.8667,-90.4833,10.0,2.549,202.0,,'11111222,11111222,99999999' 
WAVCIS,ioos:station:WAVCIS:CSI06:1,2017-01-05T18:00:00Z,28.8667,-90.4833,10.0,3.015,221.0,,'11111222,11111222,99999999' 
WAVCIS,ioos:station:WAVCIS:CSI06:1,2017-01-05T19:00:00Z,28.8667,-90.4833,10.0,3.7,211.0,,'11111222,11111222,99999999' 
WAVCIS,ioos:station:WAVCIS:CSI06:1,2017-01-05T20:00:00Z,28.8667,-90.4833,10.0,4.337,214.0,,'11111222,11111222,99999999' 
WAVCIS,ioos:station:WAVCIS:CSI06:1,2017-01-05T21:00:00Z,28.8667,-90.4833,10.0,4.062,228.0,,'11111222,11111222,99999999' 
WAVCIS,ioos:station:WAVCIS:CSI06:1,2017-01-05T22:00:00Z,28.8667,-90.4833,10.0,3.145,204.0,,'11111222,11111222,99999999' 
WAVCIS,ioos:station:WAVCIS:CSI06:1,2017-01-05T23:00:00Z,28.8667,-90.4833,10.0,3.952,176.0,,'11111222,11111222,99999999' 
WAVCIS,ioos:station:WAVCIS:CSI06:1,2017-01-06T00:00:00Z,28.8667,-90.4833,10.0,3.926,180.0,,'11111222,11111222,99999999' 
WAVCIS,ioos:station:WAVCIS:CSI06:1,2017-01-06T01:00:00Z,28.8667,-90.4833,10.0,6.272,169.0,,'11111222,11111222,99999999' 
WAVCIS,ioos:station:WAVCIS:CSI06:1,2017-01-06T02:00:00Z,28.8667,-90.4833,10.0,5.808,168.0,,'11111222,11111222,99999999' 
WAVCIS,ioos:station:WAVCIS:CSI06:1,2017-01-06T03:00:00Z,28.8667,-90.4833,10.0,5.675,171.0,,'11111222,11111222,99999999' 
WAVCIS,ioos:station:WAVCIS:CSI06:1,2017-01-06T04:00:00Z,28.8667,-90.4833,10.0,6.816,174.0,,'11111222,11111222,99999999' 
WAVCIS,ioos:station:WAVCIS:CSI06:1,2017-01-06T05:00:00Z,28.8667,-90.4833,10.0,3.334,180.0,,'11111222,11111222,99999999' 
WAVCIS,ioos:station:WAVCIS:CSI06:1,2017-01-06T06:00:00Z,28.8667,-90.4833,10.0,2.498,198.0,,'11111222,11111222,99999999' 
WAVCIS,ioos:station:WAVCIS:CSI06:1,2017-01-06T07:00:00Z,28.8667,-90.4833,10.0,3.945,184.0,,'11111222,11111222,99999999' 
WAVCIS,ioos:station:WAVCIS:CSI06:1,2017-01-06T08:00:00Z,28.8667,-90.4833,10.0,4.292,194.0,,'11111222,11111222,99999999' 
WAVCIS,ioos:station:WAVCIS:CSI06:1,2017-01-06T09:00:00Z,28.8667,-90.4833,10.0,4.787,17.0,,'11111222,11111222,99999999' 
WAVCIS,ioos:station:WAVCIS:CSI06:1,2017-01-06T10:00:00Z,28.8667,-90.4833,10.0,10.38,25.0,,'11111222,11111222,99999999' 
WAVCIS,ioos:station:WAVCIS:CSI06:1,2017-01-06T11:00:00Z,28.8667,-90.4833,10.0,10.18,28.0,,'11111222,11111222,99999999' 
WAVCIS,ioos:station:WAVCIS:CSI06:1,2017-01-06T12:00:00Z,28.8667,-90.4833,10.0,9.48,41.0,,'11111222,11111222,99999999' 
WAVCIS,ioos:station:WAVCIS:CSI06:1,2017-01-06T13:00:00Z,28.8667,-90.4833,10.0,10.5,46.0,,'11111222,11111222,99999999' 
WAVCIS,ioos:station:WAVCIS:CSI06:1,2017-01-06T14:00:00Z,28.8667,-90.4833,10.0,9.52,26.0,,'11111222,11111222,99999999' 
WAVCIS,ioos:station:WAVCIS:CSI06:1,2017-01-06T15:00:00Z,28.8667,-90.4833,10.0,12.35,31.0,,'11111222,11111222,99999999' 
WAVCIS,ioos:station:WAVCIS:CSI06:1,2017-01-06T16:00:00Z,28.8667,-90.4833,10.0,13.78,18.0,,'11111222,11111222,99999999' 
WAVCIS,ioos:station:WAVCIS:CSI06:1,2017-01-06T17:00:00Z,28.8667,-90.4833,10.0,13.99,28.0,,'11111222,11111222,99999999' 
WAVCIS,ioos:station:WAVCIS:CSI06:1,2017-01-06T18:00:00Z,28.8667,-90.4833,10.0,12.79,14.0,,'11111222,11111222,99999999' 
WAVCIS,ioos:station:WAVCIS:CSI06:1,2017-01-06T19:00:00Z,28.8667,-90.4833,10.0,13.85,37.0,,'11111222,11111222,99999999' 
WAVCIS,ioos:station:WAVCIS:CSI06:1,2017-01-06T20:00:00Z,28.8667,-90.4833,10.0,12.46,30.0,,'11111222,11111222,99999999' 
WAVCIS,ioos:station:WAVCIS:CSI06:1,2017-01-06T21:00:00Z,28.8667,-90.4833,10.0,12.04,17.0,,'11111222,11111222,99999999' 
WAVCIS,ioos:station:WAVCIS:CSI06:1,2017-01-06T22:00:00Z,28.8667,-90.4833,10.0,13.44,21.0,,'11111222,11111222,99999999' 
WAVCIS,ioos:station:WAVCIS:CSI06:1,2017-01-06T23:00:00Z,28.8667,-90.4833,10.0,13.78,30.0,,'11111222,11111222,99999999' 
WAVCIS,ioos:station:WAVCIS:CSI06:1,2017-01-07T00:00:00Z,28.8667,-90.4833,10.0,15.91,18.0,,'11111222,11111222,99999999' 
WAVCIS,ioos:station:WAVCIS:CSI06:1,2017-01-07T01:00:00Z,28.8667,-90.4833,10.0,17.78,16.0,,'11111222,11111222,99999999' 
WAVCIS,ioos:station:WAVCIS:CSI06:1,2017-01-07T02:00:00Z,28.8667,-90.4833,10.0,12.65,14.0,,'11111222,11111222,99999999' 
WAVCIS,ioos:station:WAVCIS:CSI06:1,2017-01-07T03:00:00Z,28.8667,-90.4833,10.0,11.03,7.0,,'11111222,11111222,99999999' 
WAVCIS,ioos:station:WAVCIS:CSI06:1,2017-01-07T04:00:00Z,28.8667,-90.4833,10.0,11.28,7.0,,'11111222,11111222,99999999' 
WAVCIS,ioos:station:WAVCIS:CSI06:1,2017-01-07T05:00:00Z,28.8667,-90.4833,10.0,11.63,10.0,,'11111222,11111222,99999999' 
WAVCIS,ioos:station:WAVCIS:CSI06:1,2017-01-07T06:00:00Z,28.8667,-90.4833,10.0,9.85,359.0,,'11111222,11111222,99999999' 
WAVCIS,ioos:station:WAVCIS:CSI06:1,2017-01-07T07:00:00Z,28.8667,-90.4833,10.0,12.47,348.0,,'11111222,11111222,99999999' 
WAVCIS,ioos:station:WAVCIS:CSI06:1,2017-01-07T08:00:00Z,28.8667,-90.4833,10.0,10.87,0.0,,'11111222,11111222,99999999' 
WAVCIS,ioos:station:WAVCIS:CSI06:1,2017-01-07T09:00:00Z,28.8667,-90.4833,10.0,10.81,4.0,,'11111222,11111222,99999999' 
WAVCIS,ioos:station:WAVCIS:CSI06:1,2017-01-07T10:00:00Z,28.8667,-90.4833,10.0,12.43,5.0,,'11111222,11111222,99999999' 
WAVCIS,ioos:station:WAVCIS:CSI06:1,2017-01-07T11:00:00Z,28.8667,-90.4833,10.0,11.78,1.0,,'11111222,11111222,99999999' 
WAVCIS,ioos:station:WAVCIS:CSI06:1,2017-01-07T12:00:00Z,28.8667,-90.4833,10.0,11.31,3.0,,'11111222,11111222,99999999' 
WAVCIS,ioos:station:WAVCIS:CSI06:1,2017-01-07T13:00:00Z,28.8667,-90.4833,10.0,11.13,4.0,,'11111222,11111222,99999999' 
WAVCIS,ioos:station:WAVCIS:CSI06:1,2017-01-07T14:00:00Z,28.8667,-90.4833,10.0,13.79,11.0,,'11111222,11111222,99999999' 
WAVCIS,ioos:station:WAVCIS:CSI06:1,2017-01-07T15:00:00Z,28.8667,-90.4833,10.0,11.05,7.0,,'11111222,11111222,99999999' 
WAVCIS,ioos:station:WAVCIS:CSI06:1,2017-01-07T16:00:00Z,28.8667,-90.4833,10.0,11.2,8.0,,'11111222,11111222,99999999' 
WAVCIS,ioos:station:WAVCIS:CSI06:1,2017-01-07T17:00:00Z,28.8667,-90.4833,10.0,10.79,11.0,,'11111222,11111222,99999999' 
WAVCIS,ioos:station:WAVCIS:CSI06:1,2017-01-07T18:00:00Z,28.8667,-90.4833,10.0,8.74,5.0,,'11111222,11111222,99999999' 
WAVCIS,ioos:station:WAVCIS:CSI06:1,2017-01-07T19:00:00Z,28.8667,-90.4833,10.0,8.17,1.0,,'11111222,11111222,99999999' 
WAVCIS,ioos:station:WAVCIS:CSI06:1,2017-01-07T20:00:00Z,28.8667,-90.4833,10.0,8.54,5.0,,'11111222,11111222,99999999' 
WAVCIS,ioos:station:WAVCIS:CSI06:1,2017-01-07T21:00:00Z,28.8667,-90.4833,10.0,9.5,10.0,,'11111222,11111222,99999999' 
WAVCIS,ioos:station:WAVCIS:CSI06:1,2017-01-07T22:00:00Z,28.8667,-90.4833,10.0,8.4,8.0,,'11111222,11111222,99999999' 
WAVCIS,ioos:station:WAVCIS:CSI06:1,2017-01-07T23:00:00Z,28.8667,-90.4833,10.0,9.23,3.0,,'11111222,11111222,99999999' 
WAVCIS,ioos:station:WAVCIS:CSI06:1,2017-01-08T00:00:00Z,28.8667,-90.4833,10.0,8.82,7.0,,'11111222,11111222,99999999' 
WAVCIS,ioos:station:WAVCIS:CSI06:1,2017-01-08T01:00:00Z,28.8667,-90.4833,10.0,11.85,15.0,,'11111222,11111222,99999999' 
WAVCIS,ioos:station:WAVCIS:CSI06:1,2017-01-08T02:00:00Z,28.8667,-90.4833,10.0,13.36,18.0,,'11111222,11111222,99999999' 
WAVCIS,ioos:station:WAVCIS:CSI06:1,2017-01-08T03:00:00Z,28.8667,-90.4833,10.0,11.96,12.0,,'11111222,11111222,99999999' 
WAVCIS,ioos:station:WAVCIS:CSI06:1,2017-01-08T04:00:00Z,28.8667,-90.4833,10.0,13.95,25.0,,'11111222,11111222,99999999' 
WAVCIS,ioos:station:WAVCIS:CSI06:1,2017-01-08T05:00:00Z,28.8667,-90.4833,10.0,14.23,28.0,,'11111222,11111222,99999999' 
WAVCIS,ioos:station:WAVCIS:CSI06:1,2017-01-08T06:00:00Z,28.8667,-90.4833,10.0,13.16,28.0,,'11111222,11111222,99999999' 
WAVCIS,ioos:station:WAVCIS:CSI06:1,2017-01-08T07:00:00Z,28.8667,-90.4833,10.0,12.82,38.0,,'11111222,11111222,99999999' 
WAVCIS,ioos:station:WAVCIS:CSI06:1,2017-01-08T08:00:00Z,28.8667,-90.4833,10.0,11.81,39.0,,'11111222,11111222,99999999' 
WAVCIS,ioos:station:WAVCIS:CSI06:1,2017-01-08T09:00:00Z,28.8667,-90.4833,10.0,10.96,41.0,,'11111222,11111222,99999999' 
WAVCIS,ioos:station:WAVCIS:CSI06:1,2017-01-08T10:00:00Z,28.8667,-90.4833,10.0,11.46,35.0,,'11111222,11111222,99999999' 
WAVCIS,ioos:station:WAVCIS:CSI06:1,2017-01-08T11:00:00Z,28.8667,-90.4833,10.0,9.93,37.0,,'11111222,11111222,99999999' 
WAVCIS,ioos:station:WAVCIS:CSI06:1,2017-01-08T12:00:00Z,28.8667,-90.4833,10.0,9.75,43.0,,'11111222,11111222,99999999' 
WAVCIS,ioos:station:WAVCIS:CSI06:1,2017-01-08T13:00:00Z,28.8667,-90.4833,10.0,9.24,46.0,,'11111222,11111222,99999999' 
WAVCIS,ioos:station:WAVCIS:CSI06:1,2017-01-08T14:00:00Z,28.8667,-90.4833,10.0,9.36,45.0,,'11111222,11111222,99999999' 
WAVCIS,ioos:station:WAVCIS:CSI06:1,2017-01-08T15:00:00Z,28.8667,-90.4833,10.0,8.11,52.0,,'11111222,11111222,99999999' 
WAVCIS,ioos:station:WAVCIS:CSI06:1,2017-01-08T16:00:00Z,28.8667,-90.4833,10.0,8.69,51.0,,'11111222,11111222,99999999' 
WAVCIS,ioos:station:WAVCIS:CSI06:1,2017-01-08T17:00:00Z,28.8667,-90.4833,10.0,9.48,55.0,,'11111222,11111222,99999999' 
WAVCIS,ioos:station:WAVCIS:CSI06:1,2017-01-08T18:00:00Z,28.8667,-90.4833,10.0,9.99,61.0,,'11111222,11111222,99999999' 
WAVCIS,ioos:station:WAVCIS:CSI06:1,2017-01-08T19:00:00Z,28.8667,-90.4833,10.0,9.39,70.0,,'11111222,11111222,99999999' 
WAVCIS,ioos:station:WAVCIS:CSI06:1,2017-01-08T20:00:00Z,28.8667,-90.4833,10.0,10.26,65.0,,'11111222,11111222,99999999' 
WAVCIS,ioos:station:WAVCIS:CSI06:1,2017-01-08T21:00:00Z,28.8667,-90.4833,10.0,9.98,64.0,,'11111222,11111222,99999999' 
WAVCIS,ioos:station:WAVCIS:CSI06:1,2017-01-08T22:00:00Z,28.8667,-90.4833,10.0,8.2,73.0,,'11111222,11111222,99999999' 
WAVCIS,ioos:station:WAVCIS:CSI06:1,2017-01-08T23:00:00Z,28.8667,-90.4833,10.0,8.07,64.0,,'11111222,11111222,99999999' 
WAVCIS,ioos:station:WAVCIS:CSI06:1,2017-01-09T00:00:00Z,28.8667,-90.4833,10.0,8.79,62.0,,'11111222,11111222,99999999' 
WAVCIS,ioos:station:WAVCIS:CSI06:1,2017-01-09T01:00:00Z,28.8667,-90.4833,10.0,9.26,57.0,,'11111222,11111222,99999999' 
WAVCIS,ioos:station:WAVCIS:CSI06:1,2017-01-09T02:00:00Z,28.8667,-90.4833,10.0,7.67,78.0,,'11111222,11111222,99999999' 
WAVCIS,ioos:station:WAVCIS:CSI06:1,2017-01-09T03:00:00Z,28.8667,-90.4833,10.0,8.12,81.0,,'11111222,11111222,99999999' 
WAVCIS,ioos:station:WAVCIS:CSI06:1,2017-01-09T04:00:00Z,28.8667,-90.4833,10.0,9.48,65.0,,'11111222,11111222,99999999' 
WAVCIS,ioos:station:WAVCIS:CSI06:1,2017-01-09T05:00:00Z,28.8667,-90.4833,10.0,10.65,46.0,,'11111222,11111222,99999999' 